User: anonymous   Login
Location: Oshawa
(43.9000°N, 78.8670°W)
Time: 12:17:22
(UTC-04:00)
Language:

Cosmos 1408 Rocket - Orbit

View from above orbital plane
View from above orbital plane
View from above satellite
View from above satellite

Ground track
Ground track

The orbit data is extracted from the following two-line orbital elements,

1 13553U 82092B   15248.17682991  .00000141  00000-0  14005-4 0  9991
2 13553  82.5688 120.5564 0022514  39.1563  79.9458 14.83940933780483
Epoch (UTC): 05 September 2015 04:14:38
Eccentricity: 0.0022514
inclination: 82.5688°
perigee height: 601 km
apogee height: 632 km
right ascension of ascending node: 120.5564°
argument of perigee: 39.1563°
revolutions per day: 14.83940933
mean anomaly at epoch: 79.9458°
orbit number at epoch: 78048

The dashed part of the orbit path shows where the satellite is in the earth's shadow,  

DLR